Location: Newark
(33.2833°N, 8.3333°W)
Time: 13:12:16
(UTC+00:00)

Envisat - Pass Details

Date: 22 September 2019
Orbit: 764 x 766 km, 98.1° (Epoch: 19 October)

Event Time Altitude Azimuth Distance (km) Brightness Sun altitude
Rises 19:45:21 0° 199° (SSW) 3,217 6.3 -16.4°
Reaches altitude 10° 19:48:08 10° 214° (SW) 2,295 5.7 -16.9°
Maximum altitude 19:52:01 22° 265° (W) 1,616 5.5 -17.7°
Drops below altitude 10° 19:55:56 10° 316° (NW) 2,306 6.3 -18.5°
Sets 19:58:45 0° 331° (NNW) 3,236 6.9 -19.1°
